When you browse on this site, cookies collect data to enhance your experience and personalize the content and advertising you see.
Visit our Privacy Policy to learn more. By continuing to use the site, you agree to this use of cookies and data.
  • In United Kingdom
  • List of Countries
  • For 7 days
  • Water Temperature
  • Satellite Maps
  • Weather Map
  • Weather Widgets
  • user-avatar
    Login

    Hourly Weather Vasyl'kove

    Today, 22 April, Monday

    Time Temperature Precipitation Wind Pressure Humidity
    00:00 +6°C° 0 mm 4 mps 764 mmHg 72%
    01:00 +6°C° 0 mm 4 mps 764 mmHg 72%
    02:00 +6°C° 0 mm 4 mps 763 mmHg 72%
    03:00 +5°C° 0 mm 4 mps 763 mmHg 73%
    04:00 +5°C° 0 mm 4 mps 764 mmHg 75%
    05:00 +5°C° 0 mm 4 mps 764 mmHg 77%
    06:00 +6°C° 0 mm 5 mps 764 mmHg 70%
    07:00 +8°C° 0 mm 6 mps 764 mmHg 63%
    08:00 +10°C° 0 mm 7 mps 764 mmHg 53%
    09:00 +10°C° 0 mm 7 mps 764 mmHg 52%
    10:00 +10°C° 0 mm 8 mps 765 mmHg 51%
    11:00 +11°C° 0 mm 8 mps 765 mmHg 50%
    12:00 +11°C° 0 mm 8 mps 765 mmHg 50%
    13:00 +11°C° 0 mm 8 mps 765 mmHg 51%
    14:00 +11°C° 0 mm 7 mps 765 mmHg 52%
    15:00 +11°C° 0 mm 7 mps 765 mmHg 54%
    16:00 +10°C° 0 mm 6 mps 765 mmHg 57%
    17:00 +10°C° 0 mm 6 mps 765 mmHg 59%
    18:00 +9°C° 0 mm 5 mps 765 mmHg 62%
    19:00 +8°C° 0 mm 4 mps 766 mmHg 64%
    20:00 +8°C° 0 mm 4 mps 766 mmHg 67%
    21:00 +8°C° 0 mm 4 mps 766 mmHg 67%
    22:00 +8°C° 0 mm 4 mps 766 mmHg 66%
    23:00 +8°C° 0 mm 4 mps 766 mmHg 65%

    Tomorrow, 23 April, Tuesday

    Time Temperature Precipitation Wind Pressure Humidity
    00:00 +8°C° 0 mm 4 mps 767 mmHg 66%
    01:00 +8°C° 0 mm 4 mps 767 mmHg 66%
    02:00 +8°C° 0 mm 4 mps 767 mmHg 66%
    03:00 +9°C° 0 mm 3 mps 767 mmHg 68%
    04:00 +8°C° 0 mm 3 mps 768 mmHg 70%
    05:00 +8°C° 0 mm 3 mps 768 mmHg 72%
    06:00 +8°C° 0 mm 4 mps 768 mmHg 67%
    07:00 +11°C° 0 mm 4 mps 768 mmHg 61%
    08:00 +12°C° 0 mm 5 mps 769 mmHg 56%
    09:00 +13°C° 0 mm 5 mps 769 mmHg 51%
    10:00 +14°C° 0 mm 6 mps 769 mmHg 47%
    11:00 +14°C° 0 mm 6 mps 769 mmHg 42%
    12:00 +15°C° 0 mm 6 mps 770 mmHg 42%
    13:00 +15°C° 0 mm 6 mps 770 mmHg 43%
    14:00 +15°C° 0 mm 5 mps 770 mmHg 43%
    15:00 +14°C° 0 mm 5 mps 770 mmHg 46%
    16:00 +14°C° 0 mm 4 mps 770 mmHg 49%
    17:00 +13°C° 0 mm 4 mps 770 mmHg 51%
    18:00 +12°C° 0 mm 3 mps 770 mmHg 55%
    19:00 +10°C° 0 mm 3 mps 770 mmHg 58%
    20:00 +9°C° 0 mm 2 mps 770 mmHg 62%
    21:00 +9°C° 0 mm 2 mps 770 mmHg 61%
    22:00 +8°C° 0 mm 2 mps 770 mmHg 60%
    23:00 +8°C° 0 mm 2 mps 770 mmHg 60%

    Day after tomorrow, 24 April, Wednesday

    Time Temperature Precipitation Wind Pressure Humidity
    00:00 +8°C° 0 mm 2 mps 770 mmHg 61%
    01:00 +9°C° 0 mm 1 mps 770 mmHg 63%
    02:00 +9°C° 0 mm 1 mps 770 mmHg 65%
    03:00 +9°C° 0 mm 1 mps 770 mmHg 67%
    04:00 +9°C° 0 mm 1 mps 770 mmHg 70%
    05:00 +8°C° 0 mm 1 mps 770 mmHg 72%
    06:00 +9°C° 0 mm 2 mps 770 mmHg 69%
    07:00 +12°C° 0 mm 2 mps 771 mmHg 66%
    08:00 +14°C° 0 mm 2 mps 771 mmHg 62%
    09:00 +14°C° 0 mm 3 mps 771 mmHg 59%
    10:00 +16°C° 0 mm 3 mps 771 mmHg 56%
    11:00 +17°C° 0 mm 3 mps 771 mmHg 52%
    12:00 +17°C° 0 mm 3 mps 771 mmHg 52%
    13:00 +17°C° 0 mm 3 mps 770 mmHg 52%
    14:00 +18°C° 0 mm 3 mps 770 mmHg 51%
    15:00 +17°C° 0 mm 3 mps 770 mmHg 53%
    16:00 +16°C° 0 mm 2 mps 770 mmHg 55%
    17:00 +16°C° 0 mm 2 mps 770 mmHg 56%
    18:00 +14°C° 0 mm 2 mps 770 mmHg 61%
    19:00 +13°C° 0 mm 1 mps 770 mmHg 66%
    20:00 +11°C° 0 mm 1 mps 770 mmHg 71%
    21:00 +11°C° 0 mm 1 mps 770 mmHg 71%
    22:00 +11°C° 0 mm 1 mps 770 mmHg 72%
    23:00 +10°C° 0 mm 1 mps 770 mmHg 72%

    25 April, Thursday

    Time Temperature Precipitation Wind Pressure Humidity
    00:00 +10°C° 0 mm 1 mps 770 mmHg 72%
    01:00 +10°C° 0 mm 1 mps 770 mmHg 72%
    02:00 +9°C° 0 mm 0 mps 770 mmHg 72%
    03:00 +10°C° 0 mm 1 mps 770 mmHg 72%
    04:00 +9°C° 0 mm 1 mps 770 mmHg 72%
    05:00 +9°C° 0 mm 1 mps 770 mmHg 72%
    06:00 +11°C° 0 mm 1 mps 770 mmHg 67%
    07:00 +13°C° 0 mm 1 mps 770 mmHg 61%
    08:00 +15°C° 0 mm 2 mps 770 mmHg 55%
    09:00 +16°C° 0 mm 2 mps 770 mmHg 51%
    10:00 +17°C° 0 mm 2 mps 770 mmHg 47%
    11:00 +18°C° 0 mm 2 mps 770 mmHg 42%
    12:00 +19°C° 0 mm 2 mps 769 mmHg 42%
    13:00 +19°C° 0 mm 2 mps 769 mmHg 42%
    14:00 +19°C° 0 mm 2 mps 769 mmHg 42%
    15:00 +19°C° 0 mm 2 mps 769 mmHg 44%
    16:00 +18°C° 0 mm 2 mps 769 mmHg 47%
    17:00 +17°C° 0 mm 2 mps 768 mmHg 50%
    18:00 +16°C° 0 mm 2 mps 768 mmHg 52%
    19:00 +14°C° 0 mm 1 mps 768 mmHg 55%
    20:00 +13°C° 0 mm 1 mps 768 mmHg 57%
    21:00 +13°C° 0 mm 1 mps 768 mmHg 57%
    22:00 +12°C° 0 mm 1 mps 768 mmHg 57%
    23:00 +12°C° 0 mm 1 mps 768 mmHg 57%

    26 April, Friday

    Time Temperature Precipitation Wind Pressure Humidity
    00:00 +12°C° 0 mm 1 mps 768 mmHg 57%
    01:00 +12°C° 0 mm 1 mps 767 mmHg 58%
    02:00 +12°C° 0 mm 2 mps 767 mmHg 58%
    03:00 +10°C° 0 mm 2 mps 767 mmHg 59%
    04:00 +10°C° 0 mm 2 mps 767 mmHg 60%
    05:00 +10°C° 0 mm 2 mps 767 mmHg 61%
    06:00 +13°C° 0 mm 2 mps 767 mmHg 58%
    07:00 +15°C° 0 mm 2 mps 767 mmHg 55%
    08:00 +17°C° 0 mm 2 mps 767 mmHg 52%
    09:00 +18°C° 0 mm 3 mps 767 mmHg 51%
    10:00 +19°C° 0 mm 3 mps 767 mmHg 50%
    11:00 +20°C° 0 mm 4 mps 767 mmHg 49%
    12:00 +21°C° 0 mm 4 mps 766 mmHg 49%
    13:00 +21°C° 0 mm 4 mps 766 mmHg 48%
    14:00 +21°C° 0 mm 3 mps 766 mmHg 48%
    15:00 +20°C° 0 mm 3 mps 766 mmHg 51%
    16:00 +20°C° 0 mm 3 mps 765 mmHg 53%
    17:00 +19°C° 0 mm 3 mps 765 mmHg 56%
    18:00 +17°C° 0 mm 3 mps 765 mmHg 59%
    19:00 +16°C° 0 mm 2 mps 765 mmHg 63%
    20:00 +14°C° 0 mm 2 mps 766 mmHg 66%
    21:00 +14°C° 0 mm 2 mps 765 mmHg 66%
    22:00 +14°C° 0 mm 2 mps 765 mmHg 66%
    23:00 +13°C° 0 mm 2 mps 765 mmHg 66%

    27 April, Saturday

    Time Temperature Precipitation Wind Pressure Humidity
    00:00 +13°C° 0 mm 2 mps 765 mmHg 66%
    01:00 +13°C° 0 mm 2 mps 765 mmHg 67%
    02:00 +13°C° 0 mm 2 mps 764 mmHg 68%
    03:00 +13°C° 0 mm 2 mps 764 mmHg 69%
    04:00 +12°C° 0 mm 2 mps 764 mmHg 70%
    05:00 +12°C° 0 mm 2 mps 764 mmHg 72%
    06:00 +13°C° 0 mm 3 mps 764 mmHg 67%
    07:00 +16°C° 0 mm 3 mps 764 mmHg 63%
    08:00 +18°C° 0 mm 3 mps 764 mmHg 59%
    09:00 +19°C° 0 mm 4 mps 764 mmHg 55%
    10:00 +20°C° 0 mm 4 mps 764 mmHg 51%
    11:00 +21°C° 0 mm 5 mps 764 mmHg 47%
    12:00 +21°C° 0 mm 4 mps 764 mmHg 48%
    13:00 +21°C° 0 mm 4 mps 763 mmHg 48%
    14:00 +21°C° 0 mm 4 mps 763 mmHg 49%
    15:00 +21°C° 0 mm 4 mps 763 mmHg 52%
    16:00 +20°C° 0 mm 3 mps 763 mmHg 56%
    17:00 +19°C° 0 mm 3 mps 763 mmHg 59%
    18:00 +18°C° 0 mm 2 mps 763 mmHg 65%
    19:00 +16°C° 0 mm 2 mps 763 mmHg 71%
    20:00 +14°C° 0 mm 1 mps 763 mmHg 77%
    21:00 +14°C° 0 mm 1 mps 763 mmHg 78%
    22:00 +14°C° 0 mm 1 mps 762 mmHg 79%
    23:00 +13°C° 0 mm 1 mps 762 mmHg 80%
    Show more